Hourly Data Report for June 25, 2018

LONDON CS
ONTARIO
Current Station Operator: ECCC - MSC

43°02'00.000" N
81°09'00.000" W
278.00 m
6144478
71622
WSN

Download Data

Hourly Data (June 2018)
Hourly Data Report for June 25, 2018
TIME Temp Definition
°C
Dew Point Definition
°C
Rel Hum Definition
%
Wind Dir Definition
10's deg

Wind Spd Definition
km/h
Visibility Definition
km
Stn Press Definition
kPa
Hmdx Definition


Wind Chill Definition


Weather Definition


00:00 15.3 14.3 94 LegendMM LegendMM   98.55     LegendNANA
01:00 15.0 13.9 94 LegendMM LegendMM   98.58     LegendNANA
02:00 14.3 12.9 92 LegendMM LegendMM   98.60     LegendNANA
03:00 13.5 12.1 91 LegendMM LegendMM   98.63     LegendNANA
04:00 12.9 11.7 93 LegendMM LegendMM   98.70     LegendNANA
05:00 12.7 11.3 91 LegendMM LegendMM   98.84     LegendNANA
06:00 13.3 11.2 88 LegendMM LegendMM   98.87     LegendNANA
07:00 15.3 11.1 76 LegendMM LegendMM   98.92     LegendNANA
08:00 17.0 10.4 65 LegendMM LegendMM   98.99     LegendNANA
09:00 18.5 8.1 51 LegendMM LegendMM   99.03     LegendNANA
10:00 19.4 7.8 47 LegendMM LegendMM   99.06     LegendNANA
11:00 20.6 7.9 44 LegendMM LegendMM   99.07     LegendNANA
12:00 21.0 7.3 41 LegendMM LegendMM   99.07     LegendNANA
13:00 21.5 6.6 38 LegendMM LegendMM   99.08     LegendNANA
14:00 21.9 6.8 38 LegendMM LegendMM   99.06     LegendNANA
15:00 22.6 7.7 39 LegendMM LegendMM   99.03     LegendNANA
16:00 22.6 7.8 39 LegendMM LegendMM   99.00     LegendNANA
17:00 22.7 7.5 38 LegendMM LegendMM   98.97     LegendNANA
18:00 22.6 8.2 40 LegendMM LegendMM   98.98     LegendNANA
19:00 22.0 9.6 45 LegendMM LegendMM   98.96     LegendNANA
20:00 17.9 11.4 66 LegendMM LegendMM   98.96     LegendNANA
21:00 15.9 11.4 74 LegendMM LegendMM   99.01     LegendNANA
22:00 14.4 11.6 83 LegendMM LegendMM   99.01     LegendNANA
23:00 13.4 11.3 87 LegendMM LegendMM   99.02     LegendNANA

Notes on Data Quality.

Legend

  • E = Estimated
  • M = Missing
  • NA = Not Available*
  • [empty] = Indicates an unobserved value
Date modified: